QPF
0.05 0.06 0.06 0.05 0.04 0.04 0.03 0.03 0.03 0.03 0.03 0.02 0.02 0.03 0.03 0.03 0.03 0.03 0.03 0.04 0.03 0.03 0.03 0.04 0.03 0.04 0.04 0.04 0.05 0.05 0.05 0.04 0.02 0.02 0.02 0.02 0.02 0.03 0.04 0.04 0.03 0.03 0.02
0.06 0.07 0.06 0.05 0.03 0.03 0.03 0.03 0.03 0.03 0.02 0.02 0.03 0.03 0.02 0.02 0.02 0.01 0.01 0.02 0.02 0.02 0.02 0.03 0.04 0.04 0.03 0.03 0.02 0.02 0.03 0.02 0.02 0.02 0.03 0.04 0.04 0.05 0.05 0.05 0.05 0.04 0.03
0.06 0.07 0.05 0.02 0.02 0.02 0.02 0.03 0.03 0.03 0.04 0.04 0.04 0.03 0.03 0.02 0.02 0.02 0.02 0.01 0.01 0.01 0.02 0.02 0.03 0.04 0.03 0.03 0.02 0.02 0.02 0.02 0.02 0.02 0.03 0.03 0.02 0.03 0.03 0.03 0.03 0.03 0.03
0.04 0.05 0.04 0.03 0.02 0.02 0.02 0.02 0.02 0.03 0.03 0.04 0.05 0.04 0.03 0.03 0.02 0.02 0.02 0.01 0.01 0.01 0.01 0.01 0.02 0.03 0.04 0.03 0.03 0.03 0.03 0.02 0.02 0.03 0.03 0.04 0.04 0.03 0.03 0.03 0.03 0.02 0.02
0.03 0.04 0.04 0.03 0.02 0.02 0.02 0.03 0.03 0.03 0.04 0.04 0.04 0.04 0.04 0.03 0.03 0.03 0.02 0.02 0.01 0.01 0.01 0.01 0.02 0.03 0.02 0.02 0.03 0.03 0.04 0.05 0.05 0.05 0.06 0.06 0.05 0.04 0.03 0.02 0.02 0.02 0.02
0.02 0.03 0.04 0.03 0.02 0.01 0.01 0.02 0.02 0.03 0.03 0.04 0.05 0.05 0.04 0.03 0.03 0.03 0.03 0.01 0.01 0.01 0.01 0.01 0.02 0.02 0.02 0.02 0.02 0.03 0.04 0.06 0.08 0.08 0.07 0.07 0.06 0.06 0.05 0.04 0.03 0.03 0.04
0.03 0.03 0.04 0.05 0.04 0.02 0.02 0.02 0.02 0.03 0.02 0.03 0.04 0.04 0.04 0.03 0.03 0.02 0.02 0.02 0.02 0.01 0.01 0.01 0.01 0.01 0.01 0.01 0.01 0.02 0.04 0.06 0.08 0.09 0.09 0.09 0.08 0.08 0.08 0.06 0.04 0.03 0.04
0.04 0.05 0.05 0.05 0.05 0.05 0.05 0.04 0.04 0.04 0.04 0.04 0.05 0.05 0.05 0.04 0.03 0.03 0.04 0.04 0.03 0.02 0.02 0.01 0.01 0.01 0.01 0.02 0.02 0.02 0.03 0.05 0.07 0.08 0.08 0.09 0.10 0.11 0.11 0.09 0.06 0.05 0.05
0.03 0.03 0.03 0.04 0.04 0.06 0.05 0.06 0.07 0.08 0.08 0.08 0.08 0.09 0.09 0.09 0.08 0.06 0.06 0.05 0.04 0.03 0.03 0.03 0.03 0.02 0.03 0.05 0.04 0.02 0.02 0.03 0.04 0.06 0.08 0.08 0.09 0.09 0.11 0.10 0.08 0.07 0.07
0.02 0.03 0.03 0.04 0.05 0.07 0.09 0.10 0.10 0.11 0.13 0.16 0.17 0.17 0.16 0.15 0.14 0.13 0.12 0.09 0.06 0.05 0.04 0.03 0.03 0.03 0.02 0.03 0.03 0.03 0.02 0.02 0.03 0.04 0.05 0.06 0.07 0.08 0.08 0.08 0.07 0.08 0.07
0.02 0.05 0.07 0.08 0.09 0.11 0.15 0.20 0.21 0.19 0.16 0.17 0.20 0.21 0.20 0.18 0.14 0.13 0.13 0.12 0.11 0.09 0.06 0.04 0.04 0.03 0.03 0.03 0.04 0.04 0.04 0.04 0.03 0.04 0.05 0.05 0.06 0.06 0.06 0.06 0.06 0.06 0.05
0.01 0.02 0.03 0.04 0.06 0.09 0.11 0.13 0.13 0.14 0.14 0.14 0.17 0.18 0.17 0.16 0.14 0.12 0.10 0.09 0.09 0.08 0.07 0.05 0.04 0.04 0.04 0.04 0.05 0.06 0.06 0.05 0.04 0.04 0.04 0.05 0.05 0.06 0.06 0.06 0.06 0.05 0.05
0.01 0.01 0.00 0.01 0.03 0.05 0.08 0.10 0.10 0.11 0.11 0.10 0.11 0.11 0.10 0.08 0.07 0.06 0.06 0.06 0.06 0.04 0.02 0.02 0.02 0.03 0.03 0.03 0.04 0.05 0.06 0.07 0.07 0.07 0.06 0.06 0.06 0.06 0.06 0.07 0.08 0.07 0.06
0.00 0.01 0.01 0.02 0.03 0.06 0.09 0.13 0.14 0.13 0.12 0.11 0.08 0.05 0.05 0.05 0.05 0.04 0.04 0.03 0.03 0.03 0.02 0.02 0.02 0.02 0.02 0.02 0.03 0.04 0.04 0.05 0.06 0.07 0.08 0.08 0.08 0.08 0.09 0.08 0.09 0.10 0.08
0.01 0.01 0.01 0.01 0.02 0.02 0.03 0.04 0.05 0.06 0.06 0.06 0.04 0.03 0.02 0.02 0.02 0.02 0.02 0.02 0.02 0.02 0.02 0.02 0.02 0.02 0.01 0.01 0.01 0.02 0.03 0.03 0.03 0.04 0.04 0.04 0.04 0.04 0.05 0.06 0.06 0.06 0.05
0.01 0.02 0.02 0.01 0.01 0.02 0.02 0.03 0.04 0.04 0.04 0.03 0.03 0.03 0.02 0.01 0.02 0.02 0.02 0.01 0.01 0.02 0.02 0.02 0.02 0.01 0.02 0.02 0.02 0.02 0.02 0.02 0.01 0.02 0.02 0.02 0.02 0.02 0.02 0.02 0.05 0.08 0.06
0.01 0.02 0.02 0.02 0.02 0.03 0.03 0.03 0.03 0.04 0.03 0.04 0.04 0.04 0.03 0.01 0.02 0.03 0.03 0.03 0.02 0.02 0.01 0.01 0.02 0.01 0.02 0.02 0.02 0.02 0.02 0.02 0.02 0.01 0.01 0.01 0.01 0.01 0.01 0.01 0.01 0.03 0.06
0.02 0.02 0.03 0.03 0.04 0.04 0.04 0.04 0.05 0.04 0.03 0.03 0.03 0.03 0.03 0.02 0.02 0.03 0.03 0.04 0.03 0.03 0.03 0.02 0.02 0.02 0.02 0.02 0.02 0.02 0.03 0.02 0.02 0.02 0.02 0.02 0.02 0.01 0.01 0.01 0.01 0.01 0.02
0.03 0.04 0.05 0.05 0.06 0.06 0.05 0.05 0.04 0.04 0.03 0.02 0.02 0.02 0.03 0.03 0.03 0.03 0.04 0.04 0.04 0.05 0.05 0.04 0.03 0.03 0.03 0.03 0.04 0.04 0.04 0.04 0.04 0.04 0.04 0.04 0.03 0.03 0.02 0.02 0.02 0.02 0.02
0.07 0.06 0.07 0.07 0.08 0.08 0.07 0.05 0.04 0.03 0.03 0.03 0.03 0.03 0.03 0.02 0.02 0.03 0.03 0.03 0.03 0.03 0.04 0.05 0.04 0.04 0.04 0.04 0.04 0.04 0.04 0.05 0.05 0.05 0.04 0.04 0.04 0.04 0.03 0.03 0.03 0.04 0.04
0.08 0.07 0.06 0.06 0.07 0.09 0.10 0.08 0.06 0.04 0.03 0.03 0.02 0.03 0.03 0.02 0.02 0.03 0.03 0.03 0.03 0.03 0.03 0.04 0.04 0.04 0.04 0.04 0.04 0.03 0.04 0.05 0.06 0.05 0.04 0.04 0.03 0.03 0.03 0.03 0.04 0.04 0.05
0.08 0.08 0.06 0.05 0.06 0.09 0.13 0.13 0.11 0.08 0.05 0.05 0.04 0.03 0.02 0.02 0.03 0.03 0.04 0.05 0.05 0.05 0.05 0.05 0.05 0.04 0.04 0.04 0.04 0.04 0.05 0.05 0.05 0.05 0.04 0.04 0.04 0.04 0.03 0.03 0.03 0.05 0.06
0.03 0.04 0.04 0.05 0.05 0.06 0.09 0.11 0.10 0.07 0.05 0.04 0.04 0.04 0.04 0.04 0.04 0.04 0.05 0.05 0.06 0.07 0.07 0.07 0.07 0.07 0.06 0.06 0.05 0.05 0.05 0.04 0.04 0.04 0.03 0.03 0.03 0.04 0.04 0.04 0.03 0.03 0.04
0.02 0.01 0.01 0.02 0.02 0.02 0.03 0.04 0.04 0.04 0.04 0.05 0.05 0.05 0.04 0.04 0.05 0.05 0.06 0.07 0.07 0.07 0.07 0.07 0.07 0.06 0.06 0.06 0.05 0.04 0.03 0.03 0.02 0.02 0.02 0.01 0.01 0.02 0.03 0.03 0.03 0.03 0.02
0.01 0.01 0.02 0.03 0.03 0.04 0.03 0.02 0.02 0.02 0.02 0.03 0.03 0.03 0.04 0.04 0.05 0.06 0.07 0.07 0.08 0.09 0.09 0.08 0.07 0.05 0.05 0.05 0.05 0.04 0.03 0.02 0.02 0.01 0.01 0.01 0.01 0.01 0.02 0.03 0.02 0.02 0.02
0.00 0.00 0.01 0.01 0.02 0.03 0.04 0.04 0.04 0.04 0.04 0.04 0.04 0.04 0.04 0.04 0.05 0.06 0.06 0.06 0.06 0.06 0.07 0.07 0.06 0.05 0.04 0.03 0.03 0.02 0.02 0.02 0.01 0.01 0.01 0.01 0.01 0.01 0.01 0.01 0.01 0.01 0.01
MSLP
1007.54 1007.77 1008.09 1008.46 1008.84 1009.17 1009.46 1009.70 1009.91 1010.12 1010.37 1010.66 1011.02 1011.43 1011.87 1012.33 1012.78 1013.19 1013.57 1013.89 1014.18 1014.44 1014.69 1014.95 1015.22 1015.53 1015.88 1016.28 1016.73 1017.23 1017.75 1018.30 1018.84 1019.36 1019.82 1020.20 1020.48 1020.65 1020.73 1020.72 1020.64 1020.53 1020.41
1007.42 1007.56 1007.81 1008.13 1008.45 1008.75 1009.01 1009.23 1009.42 1009.61 1009.83 1010.11 1010.46 1010.88 1011.36 1011.88 1012.41 1012.93 1013.42 1013.87 1014.27 1014.61 1014.92 1015.21 1015.48 1015.76 1016.06 1016.41 1016.81 1017.26 1017.77 1018.31 1018.87 1019.41 1019.92 1020.34 1020.67 1020.89 1020.99 1021.00 1020.93 1020.81 1020.67
1007.59 1007.67 1007.84 1008.08 1008.33 1008.55 1008.73 1008.88 1009.00 1009.12 1009.29 1009.52 1009.84 1010.25 1010.74 1011.31 1011.92 1012.54 1013.16 1013.73 1014.25 1014.72 1015.11 1015.46 1015.77 1016.05 1016.34 1016.66 1017.02 1017.43 1017.90 1018.43 1018.97 1019.53 1020.04 1020.49 1020.85 1021.09 1021.22 1021.25 1021.18 1021.06 1020.91
1007.95 1007.99 1008.10 1008.26 1008.41 1008.53 1008.60 1008.64 1008.65 1008.68 1008.75 1008.90 1009.17 1009.55 1010.04 1010.63 1011.30 1012.01 1012.74 1013.44 1014.09 1014.68 1015.19 1015.63 1016.00 1016.32 1016.62 1016.93 1017.26 1017.65 1018.08 1018.57 1019.09 1019.62 1020.13 1020.58 1020.94 1021.20 1021.35 1021.39 1021.34 1021.22 1021.07
1008.37 1008.39 1008.46 1008.53 1008.58 1008.59 1008.54 1008.45 1008.34 1008.25 1008.22 1008.29 1008.48 1008.81 1009.28 1009.88 1010.58 1011.35 1012.17 1012.98 1013.75 1014.47 1015.10 1015.64 1016.10 1016.49 1016.82 1017.14 1017.47 1017.82 1018.22 1018.66 1019.14 1019.63 1020.11 1020.54 1020.90 1021.17 1021.33 1021.38 1021.34 1021.24 1021.09
1008.70 1008.73 1008.76 1008.77 1008.73 1008.62 1008.46 1008.25 1008.02 1007.83 1007.70 1007.67 1007.79 1008.06 1008.50 1009.08 1009.80 1010.61 1011.48 1012.38 1013.26 1014.08 1014.83 1015.48 1016.03 1016.50 1016.89 1017.24 1017.57 1017.90 1018.27 1018.66 1019.09 1019.54 1019.98 1020.38 1020.73 1020.99 1021.15 1021.22 1021.20 1021.12 1020.99
1008.84 1008.89 1008.90 1008.86 1008.75 1008.55 1008.29 1007.99 1007.68 1007.40 1007.19 1007.10 1007.16 1007.38 1007.77 1008.33 1009.03 1009.85 1010.76 1011.71 1012.66 1013.58 1014.42 1015.17 1015.82 1016.37 1016.83 1017.21 1017.56 1017.89 1018.23 1018.58 1018.96 1019.36 1019.75 1020.12 1020.44 1020.69 1020.86 1020.94 1020.95 1020.89 1020.79
1008.77 1008.82 1008.83 1008.76 1008.60 1008.35 1008.04 1007.68 1007.33 1007.00 1006.76 1006.63 1006.65 1006.83 1007.19 1007.71 1008.39 1009.20 1010.11 1011.08 1012.07 1013.04 1013.96 1014.80 1015.53 1016.16 1016.68 1017.12 1017.49 1017.82 1018.14 1018.46 1018.79 1019.14 1019.48 1019.81 1020.10 1020.34 1020.51 1020.61 1020.63 1020.60 1020.53
1008.51 1008.58 1008.58 1008.49 1008.31 1008.05 1007.73 1007.37 1007.01 1006.70 1006.46 1006.33 1006.34 1006.50 1006.83 1007.32 1007.96 1008.74 1009.62 1010.59 1011.59 1012.60 1013.56 1014.46 1015.26 1015.95 1016.53 1017.01 1017.41 1017.75 1018.05 1018.35 1018.64 1018.93 1019.23 1019.52 1019.78 1019.99 1020.16 1020.26 1020.31 1020.29 1020.24
1008.17 1008.24 1008.24 1008.15 1007.97 1007.73 1007.43 1007.11 1006.81 1006.54 1006.35 1006.25 1006.29 1006.45 1006.76 1007.22 1007.82 1008.56 1009.40 1010.34 1011.33 1012.33 1013.31 1014.24 1015.08 1015.82 1016.45 1016.96 1017.38 1017.73 1018.02 1018.29 1018.54 1018.79 1019.04 1019.28 1019.50 1019.69 1019.84 1019.93 1019.98 1019.98 1019.94
1007.83 1007.88 1007.87 1007.79 1007.64 1007.44 1007.21 1006.97 1006.74 1006.57 1006.46 1006.43 1006.51 1006.70 1007.01 1007.45 1008.01 1008.69 1009.49 1010.37 1011.32 1012.30 1013.27 1014.19 1015.05 1015.81 1016.46 1017.00 1017.43 1017.77 1018.05 1018.29 1018.50 1018.70 1018.89 1019.08 1019.26 1019.41 1019.53 1019.62 1019.66 1019.66 1019.62
1007.53 1007.55 1007.53 1007.46 1007.35 1007.21 1007.06 1006.93 1006.83 1006.77 1006.77 1006.83 1006.98 1007.21 1007.53 1007.96 1008.48 1009.12 1009.85 1010.67 1011.56 1012.49 1013.42 1014.32 1015.16 1015.92 1016.57 1017.10 1017.53 1017.86 1018.12 1018.32 1018.49 1018.63 1018.77 1018.90 1019.03 1019.13 1019.22 1019.28 1019.30 1019.29 1019.25
1007.24 1007.23 1007.19 1007.14 1007.07 1007.01 1006.97 1006.96 1006.99 1007.06 1007.19 1007.36 1007.60 1007.88 1008.23 1008.66 1009.16 1009.75 1010.42 1011.17 1011.99 1012.85 1013.72 1014.56 1015.36 1016.08 1016.70 1017.21 1017.62 1017.93 1018.15 1018.31 1018.43 1018.52 1018.60 1018.67 1018.74 1018.80 1018.84 1018.87 1018.87 1018.85 1018.80
1006.92 1006.85 1006.80 1006.76 1006.74 1006.77 1006.84 1006.96 1007.13 1007.35 1007.61 1007.90 1008.23 1008.59 1008.98 1009.42 1009.91 1010.46 1011.08 1011.76 1012.49 1013.27 1014.06 1014.83 1015.56 1016.22 1016.79 1017.26 1017.62 1017.89 1018.07 1018.19 1018.26 1018.31 1018.33 1018.35 1018.36 1018.37 1018.37 1018.36 1018.34 1018.31 1018.25
1006.47 1006.36 1006.28 1006.25 1006.28 1006.39 1006.56 1006.81 1007.13 1007.49 1007.89 1008.31 1008.74 1009.19 1009.64 1010.10 1010.59 1011.12 1011.69 1012.30 1012.96 1013.65 1014.34 1015.02 1015.67 1016.25 1016.75 1017.16 1017.47 1017.69 1017.83 1017.91 1017.94 1017.94 1017.92 1017.89 1017.86 1017.83 1017.80 1017.77 1017.74 1017.69 1017.64
1005.85 1005.69 1005.58 1005.56 1005.64 1005.81 1006.09 1006.46 1006.90 1007.40 1007.93 1008.48 1009.02 1009.56 1010.07 1010.58 1011.08 1011.60 1012.13 1012.69 1013.27 1013.87 1014.47 1015.06 1015.61 1016.11 1016.53 1016.87 1017.13 1017.31 1017.41 1017.46 1017.46 1017.44 1017.39 1017.34 1017.29 1017.24 1017.19 1017.14 1017.10 1017.06 1017.01
1005.07 1004.86 1004.73 1004.72 1004.83 1005.06 1005.43 1005.90 1006.45 1007.07 1007.72 1008.38 1009.03 1009.65 1010.24 1010.80 1011.33 1011.85 1012.36 1012.87 1013.39 1013.91 1014.42 1014.91 1015.37 1015.78 1016.13 1016.41 1016.62 1016.77 1016.85 1016.88 1016.88 1016.85 1016.80 1016.75 1016.69 1016.64 1016.60 1016.55 1016.52 1016.48 1016.44
1004.21 1003.96 1003.82 1003.81 1003.94 1004.23 1004.66 1005.21 1005.85 1006.56 1007.31 1008.07 1008.80 1009.50 1010.15 1010.76 1011.32 1011.85 1012.35 1012.83 1013.30 1013.75 1014.19 1014.61 1014.99 1015.32 1015.61 1015.85 1016.02 1016.15 1016.23 1016.27 1016.27 1016.26 1016.23 1016.20 1016.16 1016.13 1016.10 1016.07 1016.05 1016.02 1015.99
1003.40 1003.13 1002.98 1002.97 1003.13 1003.45 1003.92 1004.52 1005.22 1006.00 1006.81 1007.62 1008.42 1009.17 1009.88 1010.52 1011.12 1011.66 1012.16 1012.62 1013.05 1013.46 1013.84 1014.20 1014.52 1014.81 1015.06 1015.26 1015.43 1015.55 1015.65 1015.71 1015.75 1015.77 1015.78 1015.78 1015.77 1015.77 1015.76 1015.75 1015.74 1015.72 1015.69
1002.75 1002.49 1002.35 1002.37 1002.54 1002.88 1003.37 1003.99 1004.71 1005.50 1006.33 1007.17 1008.00 1008.78 1009.51 1010.18 1010.79 1011.34 1011.84 1012.29 1012.71 1013.09 1013.44 1013.77 1014.06 1014.32 1014.55 1014.76 1014.93 1015.07 1015.19 1015.29 1015.37 1015.44 1015.49 1015.53 1015.56 1015.58 1015.59 1015.60 1015.59 1015.57 1015.53
1002.35 1002.13 1002.03 1002.08 1002.28 1002.62 1003.11 1003.72 1004.42 1005.19 1006.00 1006.82 1007.63 1008.40 1009.13 1009.80 1010.42 1010.97 1011.48 1011.93 1012.35 1012.72 1013.07 1013.39 1013.68 1013.94 1014.19 1014.41 1014.61 1014.78 1014.94 1015.08 1015.20 1015.30 1015.39 1015.46 1015.52 1015.55 1015.58 1015.58 1015.57 1015.53 1015.46
1002.20 1002.07 1002.04 1002.13 1002.35 1002.70 1003.17 1003.74 1004.39 1005.11 1005.86 1006.62 1007.38 1008.11 1008.80 1009.45 1010.05 1010.61 1011.12 1011.58 1012.01 1012.41 1012.77 1013.11 1013.43 1013.73 1014.00 1014.26 1014.49 1014.71 1014.90 1015.08 1015.23 1015.36 1015.46 1015.55 1015.61 1015.65 1015.66 1015.65 1015.61 1015.54 1015.43
1002.25 1002.23 1002.29 1002.45 1002.70 1003.05 1003.49 1004.01 1004.60 1005.23 1005.89 1006.57 1007.24 1007.90 1008.54 1009.15 1009.73 1010.28 1010.80 1011.28 1011.74 1012.17 1012.58 1012.97 1013.33 1013.68 1014.00 1014.31 1014.58 1014.84 1015.06 1015.26 1015.42 1015.56 1015.66 1015.74 1015.78 1015.80 1015.78 1015.73 1015.65 1015.53 1015.37
1002.37 1002.49 1002.66 1002.89 1003.18 1003.54 1003.95 1004.42 1004.93 1005.46 1006.02 1006.60 1007.18 1007.76 1008.33 1008.89 1009.45 1009.99 1010.52 1011.03 1011.53 1012.02 1012.49 1012.94 1013.37 1013.78 1014.16 1014.52 1014.83 1015.12 1015.36 1015.56 1015.72 1015.85 1015.93 1015.97 1015.97 1015.94 1015.88 1015.78 1015.65 1015.48 1015.27
1002.45 1002.70 1002.99 1003.30 1003.64 1004.01 1004.41 1004.82 1005.26 1005.71 1006.17 1006.64 1007.13 1007.63 1008.14 1008.66 1009.19 1009.73 1010.28 1010.84 1011.39 1011.94 1012.48 1013.01 1013.51 1013.99 1014.43 1014.83 1015.18 1015.48 1015.73 1015.92 1016.06 1016.15 1016.19 1016.18 1016.14 1016.05 1015.93 1015.79 1015.60 1015.38 1015.12
1002.42 1002.80 1003.19 1003.58 1003.97 1004.36 1004.74 1005.12 1005.50 1005.88 1006.26 1006.65 1007.06 1007.50 1007.96 1008.45 1008.97 1009.52 1010.10 1010.69 1011.31 1011.93 1012.54 1013.14 1013.72 1014.26 1014.75 1015.19 1015.56 1015.87 1016.11 1016.29 1016.39 1016.44 1016.42 1016.36 1016.26 1016.12 1015.95 1015.75 1015.52 1015.25 1014.95
Thickness
5754 5752 5750 5747 5745 5742 5741 5741 5740 5739 5738 5738 5737 5735 5734 5733 5732 5731 5730 5728 5727 5726 5725 5724 5723 5722 5721 5720 5719 5718 5717 5715 5712 5713 5714 5715 5715 5715 5715 5715 5714 5714 5713
5751 5749 5747 5744 5741 5739 5738 5738 5736 5735 5734 5734 5733 5731 5730 5729 5729 5727 5726 5725 5723 5722 5721 5720 5719 5718 5717 5716 5715 5714 5713 5712 5709 5707 5708 5709 5710 5711 5711 5710 5710 5710 5709
5748 5745 5743 5740 5738 5736 5735 5735 5733 5732 5731 5730 5728 5726 5726 5725 5724 5723 5722 5720 5719 5718 5717 5715 5715 5714 5712 5711 5711 5710 5709 5708 5706 5704 5704 5704 5705 5706 5705 5706 5706 5705 5704
5743 5740 5738 5737 5735 5733 5732 5731 5729 5728 5726 5725 5724 5722 5721 5720 5719 5718 5717 5715 5714 5713 5712 5711 5711 5710 5709 5708 5707 5706 5704 5702 5700 5699 5698 5698 5698 5699 5699 5699 5698 5698 5698
5738 5735 5734 5732 5730 5729 5727 5726 5725 5724 5722 5720 5719 5717 5716 5715 5714 5713 5711 5710 5708 5707 5707 5707 5706 5706 5705 5704 5703 5701 5699 5696 5695 5693 5693 5692 5692 5692 5693 5693 5691 5691 5691
5732 5730 5728 5726 5725 5723 5722 5721 5720 5718 5716 5714 5713 5712 5710 5710 5709 5708 5706 5703 5702 5701 5700 5700 5700 5700 5699 5698 5698 5697 5695 5692 5690 5688 5687 5687 5687 5688 5687 5685 5684 5682 5683
5726 5724 5722 5720 5718 5717 5716 5714 5713 5711 5710 5708 5706 5705 5704 5703 5702 5701 5700 5698 5696 5694 5694 5693 5694 5694 5693 5692 5691 5690 5689 5688 5687 5684 5682 5682 5682 5682 5680 5678 5676 5675 5676
5720 5717 5716 5714 5712 5710 5708 5707 5705 5704 5702 5701 5700 5698 5697 5696 5695 5694 5693 5691 5689 5688 5687 5686 5686 5685 5685 5684 5684 5683 5682 5681 5680 5679 5678 5677 5677 5676 5673 5672 5670 5668 5668
5713 5711 5710 5707 5705 5703 5701 5698 5697 5696 5694 5693 5692 5691 5689 5688 5687 5686 5685 5683 5681 5680 5679 5679 5678 5678 5677 5677 5676 5675 5674 5674 5673 5672 5671 5670 5669 5668 5666 5664 5662 5659 5659
5707 5705 5703 5701 5698 5696 5694 5692 5690 5688 5687 5686 5684 5683 5681 5680 5679 5677 5677 5675 5673 5672 5672 5671 5670 5670 5669 5668 5668 5667 5665 5665 5665 5664 5663 5661 5660 5658 5657 5655 5653 5650 5649
5701 5699 5697 5694 5691 5690 5688 5686 5683 5681 5679 5677 5676 5674 5673 5672 5671 5669 5668 5667 5666 5664 5664 5663 5662 5661 5660 5659 5659 5658 5657 5656 5655 5655 5654 5652 5651 5649 5647 5646 5644 5642 5640
5693 5691 5689 5687 5685 5682 5679 5678 5676 5673 5671 5668 5667 5665 5664 5663 5663 5661 5660 5660 5659 5657 5655 5655 5654 5653 5651 5650 5649 5648 5647 5647 5645 5644 5643 5642 5640 5638 5637 5636 5635 5633 5632
5685 5684 5682 5680 5677 5675 5672 5670 5667 5665 5662 5660 5658 5656 5655 5655 5655 5654 5653 5652 5651 5649 5648 5647 5645 5643 5642 5641 5639 5638 5637 5636 5634 5633 5632 5631 5629 5628 5627 5626 5625 5623 5622
5678 5676 5674 5671 5669 5667 5664 5662 5659 5657 5654 5652 5650 5649 5647 5646 5646 5646 5645 5643 5642 5641 5639 5637 5635 5633 5632 5631 5629 5628 5626 5624 5623 5622 5621 5620 5618 5617 5616 5615 5614 5612 5611
5670 5668 5666 5663 5661 5658 5656 5653 5652 5650 5648 5646 5644 5642 5640 5639 5639 5638 5636 5636 5635 5632 5630 5628 5626 5624 5623 5621 5619 5617 5616 5614 5613 5611 5610 5609 5607 5606 5605 5604 5602 5601 5599
5662 5660 5658 5655 5653 5650 5647 5645 5644 5642 5641 5639 5637 5635 5634 5633 5632 5630 5629 5628 5626 5623 5620 5618 5616 5614 5612 5610 5608 5607 5605 5604 5603 5601 5599 5598 5597 5596 5594 5592 5590 5589 5588
5655 5654 5651 5648 5646 5643 5640 5638 5636 5634 5633 5632 5630 5628 5627 5625 5624 5623 5621 5618 5615 5613 5612 5609 5607 5605 5602 5600 5598 5597 5595 5593 5592 5590 5589 5587 5586 5584 5583 5582 5580 5578 5577
5649 5647 5644 5641 5638 5636 5634 5632 5629 5627 5625 5624 5623 5621 5619 5618 5616 5615 5612 5609 5606 5603 5602 5600 5597 5595 5593 5591 5589 5587 5585 5583 5582 5580 5579 5577 5575 5574 5573 5571 5569 5567 5567
5643 5640 5637 5634 5631 5629 5627 5625 5622 5620 5618 5617 5616 5614 5611 5609 5608 5606 5603 5602 5599 5596 5594 5591 5589 5587 5585 5582 5580 5577 5575 5573 5571 5570 5569 5567 5566 5565 5563 5562 5561 5558 5557
5635 5635 5631 5627 5624 5622 5619 5617 5615 5613 5612 5610 5609 5607 5604 5601 5599 5597 5595 5593 5591 5589 5587 5584 5581 5579 5577 5574 5571 5568 5566 5564 5562 5560 5559 5558 5556 5554 5553 5551 5551 5550 5549
5629 5627 5625 5621 5618 5615 5613 5610 5609 5607 5606 5604 5602 5600 5597 5595 5594 5591 5589 5586 5584 5582 5579 5577 5574 5571 5569 5566 5563 5560 5558 5556 5553 5551 5549 5548 5546 5545 5543 5542 5542 5541 5540
5621 5618 5616 5614 5612 5609 5606 5605 5603 5601 5600 5598 5596 5593 5590 5589 5587 5586 5583 5581 5578 5575 5573 5569 5567 5564 5561 5559 5556 5553 5550 5548 5545 5543 5541 5538 5536 5535 5534 5533 5532 5531 5530
5614 5612 5610 5607 5605 5603 5601 5598 5596 5595 5594 5592 5590 5588 5585 5583 5581 5579 5577 5575 5572 5569 5566 5562 5560 5557 5555 5552 5549 5546 5544 5541 5538 5535 5532 5530 5528 5527 5525 5524 5523 5522 5521
5608 5606 5604 5602 5600 5598 5596 5594 5592 5590 5588 5586 5584 5582 5580 5577 5575 5573 5570 5568 5565 5562 5559 5556 5554 5551 5548 5546 5543 5540 5537 5535 5531 5528 5526 5524 5521 5519 5517 5515 5514 5513 5512
5603 5600 5598 5596 5594 5592 5590 5589 5587 5585 5583 5581 5579 5577 5575 5572 5569 5567 5564 5561 5558 5555 5552 5550 5547 5544 5542 5539 5536 5533 5530 5527 5524 5521 5519 5517 5515 5512 5510 5508 5506 5504 5503
5596 5593 5591 5589 5587 5586 5584 5582 5581 5580 5578 5576 5573 5572 5569 5566 5563 5560 5557 5554 5551 5548 5546 5543 5540 5538 5535 5532 5529 5526 5523 5520 5518 5514 5512 5509 5507 5505 5502 5501 5499 5497 5495